Regional Weather Roundup
Issued by NWS

Home | Current Version | Previous Version | Text Only | Print | Product List | Glossary On
Versions: 1 2 3 4 5 6 7 8 9 10 11 12 13 14 15 16 17 18 19 20 21 22 23 24 25 26 27 28 29 30 31 32 33 34 35 36 37 38 39 40 41 42 43 44 45 46 47 48 49 50
000
ASUS45 KPSR 191000
RWRAZ

ARIZONA REGIONAL HOURLY WEATHER ROUNDUP
NATIONAL WEATHER SERVICE PHOENIX AZ
300 AM MST SUN APR 19 2015

NOTE: FAIR INDICATES FEW OR NO CLOUDS BELOW 12,000 FEET WITH NO
SIGNIFICANT WEATHER AND/OR OBSTRUCTIONS TO VISIBILITY.

AZZ001>003-036-191100-
NORTHWEST ARIZONA

CITY           SKY/WX    TMP DP  RH WIND       PRES   REMARKS
KINGMAN        FAIR      47  16  29 SE6       29.96S
$$

AZZ004>008-015-016-018-191100-
NORTH CENTRAL ARIZONA

CITY           SKY/WX    TMP DP  RH WIND       PRES   REMARKS
GRAND CANYON   MOCLDY    30  15  53 CALM      30.11S
WILLIAMS       FAIR      32  16  51 S10       30.17S WCI  24
PRESCOTT       FAIR      46  16  30 S7        30.04S
FLAGSTAFF      NOT AVBL
PAYSON         FAIR      50  16  25 CALM      30.06R
PAGE           FAIR      56  25  30 SE5       30.03R
$$

AZZ009>014-017-191100-
NORTHEAST ARIZONA

CITY           SKY/WX    TMP DP  RH WIND       PRES   REMARKS
WINSLOW        NOT AVBL
SAINT JOHNS    MOCLDY    42  18  37 S6        30.04F
WINDOW ROCK    FAIR      33  23  66 S3        30.08R
SHOW LOW       FAIR      45  14  29 SE3       30.10R
$$

AZZ023-191100-
GREATER PHOENIX AREA

CITY           SKY/WX    TMP DP  RH WIND       PRES   REMARKS
PHOENIX        FAIR      68  27  21 SE3       29.86S
DEER VALLEY    FAIR      58  21  24 CALM      29.88R
SCOTTSDALE     FAIR      69  24  18 CALM      29.90R
$$

AZZ027-028-191100-
SOUTHWEST MARICOPA COUNTY AND PINAL COUNTY

CITY           SKY/WX    TMP DP  RH WIND       PRES   REMARKS
CASA GRANDE    FAIR      61  25  25 E5        29.89R
$$

AZZ503-504-507>509-191100-
SOUTHEAST ARIZONA

CITY           SKY/WX    TMP DP  RH WIND       PRES   REMARKS
TUCSON         FAIR      57  22  25 SE9       29.99R
NOGALES        FAIR      45  24  43 NE6       30.02F
SAFFORD        FAIR      50  16  25 E7        29.94R
$$

AZZ020-021-025-026-031-191100-
SOUTHWEST ARIZONA

CITY           SKY/WX    TMP DP  RH WIND       PRES   REMARKS
YUMA           FAIR      69  34  27 SE3       29.84F
$$

CAZ031-033-041-043-047-048-061-191100-
SOUTHERN CALIFORNIA

CITY           SKY/WX    TMP DP  RH WIND       PRES   REMARKS
DOWNTOWN L.A.  FAIR      58  53  84 CALM      29.95F
L.A. AIRPORT   FAIR      57  54  89 CALM      29.95F
SAN DIEGO      CLOUDY    62  55  77 CALM      29.97S
BURBANK        FAIR      58  47  66 CALM      29.94F
ONTARIO        FAIR      58  51  78 CALM      29.95F
RIVERSIDE      FAIR      58  46  64 CALM      29.96F
PALM SPRINGS   FAIR      70  35  27 CALM      29.86S
EL CENTRO NAS  FAIR      66  23  19 NW5       29.82F
IMPERIAL       FAIR      64  31  28 W7        29.82F
BLYTHE         FAIR      69  29  22 S8        29.83F
$$

NVZ020-UTZ003-191100-
SOUTHERN NEVADA-UTAH

CITY           SKY/WX    TMP DP  RH WIND       PRES   REMARKS
LAS VEGAS      NOT AVBL
SALT LAKE CITY FAIR      46  35  65 SE7       30.04R
$$

NMZ009-TXZ055-191100-
NEW MEXICO-WEST TEXAS

CITY           SKY/WX    TMP DP  RH WIND       PRES   REMARKS
ALBUQUERQUE    PTCLDY    49  31  49 N8        30.00S
EL PASO        FAIR      65  16  15 W18       29.93S
$$


........................KEY........................
SKY/WX - SKY CONDITION/WEATHER
TMP    - TEMPERATURE IN FAHRENHEIT
DP     - DEW POINT IN FAHRENHEIT
RH     - RELATIVE HUMIDITY IN PERCENT
WIND   - DIRECTION AND SPEED IN MILES PER HOUR (MPH)
VRB    - VARIABLE WIND DIRECTION
PRES   - MEAN SEA LEVEL PRESSURE IN INCHES OF MERCURY
         F - FALLING PRESSURE   R - RISING PRESSURE
         S - STEADY PRESSURE
VSB    - VISIBILITY IN MILES
HX     - HEAT INDEX IN FAHRENHEIT
WCI    - WIND CHILL INDEX IN FAHRENHEIT
TC     - TEMPERATURE IN CELSIUS WHICH IS ALSO KNOWN AS
         TEMPERATURE IN CENTIGRADE
AFB    - AIR FORCE BASE
         LUKE AFB IS LUKE AIR FORCE BASE
         DAVIS-MONTHAN IS DAVIS-MONTHAN AIR FORCE BASE
NAS    - NAVAL AIR STATION
         EL CENTRO NAS IS EL CENTRO NAVAL AIR STATION
N/A    - NOT AVAILABLE



USA.gov is the U.S. government's official web portal to all federal, state and local government web resources and services.